322  
FPUS83 KFGF 230810  
OPUFGF  
PRAIRIE TO PINES WEATHER ROUNDUP  
NATIONAL WEATHER SERVICE EASTERN NORTH DAKOTA/GRAND FORKS ND  
200 AM CST WED JAN 23 2019  
 
**SATELLITE DATA USED TO AUGMENT SKY COVER AT AUTOMATED STATIONS**  
***** WEATHER ACROSS EASTERN NORTH DAKOTA *****  
 
CITY SKY/WX TMP DP RH WIND PRES REMARKS  
GRAND FORKS FAIR -11 -15 82 SW9 29.98F WCI -29  
GRND FORKS AFB FAIR -3 -7 81 SW7 29.97F WCI -16  
GRND FORKS NWS N/A -5 -5 100 SW2 29.96F  
BUXTON NOT AVBL  
DEVILS LAKE FAIR -6 -10 83 SE6 29.90 WCI -19  
FARGO FAIR -5 -7 91 S3 30.03F FOG  
WAHPETON ARPT FAIR -6 -9 84 CALM 30.04S  

 
 
***** WEATHER ACROSS CENTRAL AND WESTERN NORTH DAKOTA *****  
 
CITY SKY/WX TMP DP RH WIND PRES REMARKS  
JAMESTOWN FAIR -1 -4 87 S9 29.92 WCI -16  
BISMARCK MOCLDY 13 10 88 SE6 29.89F WCI 4  
MINOT CLOUDY 25 18 74 SW12 29.78F WCI 14  
MINOT AFB FAIR 22 18 82 SW10 29.76F WCI 11  
GARRISON N/A 20 18 92 S8 29.81F WCI 10  
WILLISTON MOCLDY 28 19 69 W16 29.78F WCI 16  
DICKINSON CLOUDY 25 17 72 W16 29.81F WCI 12  
HETTINGER CLOUDY 24 17 74 W15 29.87F WCI 11  

 
 
***** OTHER OBSERVATIONS NORTHEAST NORTH DAKOTA *****  
 
CITY SKY/WX TMP DP RH WIND PRES REMARKS  
WALHALLA N/A 0 0 100 SE7 29.93F WCI -13  
LANGDON FAIR 3 3 100 S14 29.88F WCI -15  
CAVALIER FAIR 0 -4 85 S6 29.94F WCI -12  
GRAFTON PTSUNNY -4 -8 84 S6 30.00F WCI -16  
CANDO CLOUDY 0 -2 92 SE8 29.89F WCI -15  
FORT TOTTEN N/A 6 2 84 SE6 29.95S WCI -5  
ROLLA CLOUDY 12 12 100 S6 29.83F WCI 3  
RUGBY CLOUDY 12 12 100 S13 29.82F WCI -3  
***** THE ABOVE OBSERVATIONS ARE NON NWS ARE NOT QUALITY  
CONTROLLED AND MAY MIS-REPORT RAIN FOR SNOW...  

 
 
***** OTHER OBSERVATIONS SOUTHEAST NORTH DAKOTA *****  
 
CITY SKY/WX TMP DP RH WIND PRES REMARKS  
COOPERSTOWN FAIR -6 -9 84 S7 29.95F WCI -20  
VALLEY CITY N/A N/A N/A N/A MISG N/A  
OAKES CLOUDY -2 -6 84 S9 29.99F WCI -18  
GWINNER N/A -4 -8 84 W10 29.99F WCI -21  
BUFFALO NOT AVBL  
WYNDMERE NOT AVBL  
***** THE ABOVE OBSERVATIONS ARE NON NWS ARE NOT QUALITY  
CONTROLLED AND MAY MIS-REPORT RAIN FOR SNOW...  

 
 
***** WEATHER ACROSS NORTHERN MINNESOTA *****  
 
CITY SKY/WX TMP DP RH WIND PRES REMARKS  
FLAG ISLAND FLURRIES -2 -8 78 S5 29.96F WCI -12  
WARROAD CLOUDY 3 0 85 CALM 29.97F  
ROSEAU CLOUDY 7 1 78 S3 29.97F  
HALLOCK CLOUDY 7 3 85 S7 29.98S WCI -5  
THF RVR FALLS CLOUDY 5 2 87 SW8 29.98F WCI -8  
HALSTAD NOT AVBL  
FOSSTON CLOUDY 1 0 92 CALM 29.98F FOG  
BAUDETTE FAIR -7 -10 87 W3 29.97S  
WASKISH FLURRIES -6 -8 92 CALM 29.97F  
CROOKSTON FAIR -9 -13 84 SE3 30.01F  

 
***** WEATHER ACROSS CENTRAL AND WEST MINNESOTA *****  
 
CITY SKY/WX TMP DP RH WIND PRES REMARKS  
BEMIDJI LGT SNOW 1 -2 86 CALM 29.95F  
PARK RAPIDS FAIR -4 -6 91 NW5 29.95F WCI -15  
WADENA FAIR 1 0 92 CALM 29.97F FOG  
DETROIT LAKES SNOW 7 5 92 CALM 29.99F VSB 1/4  
MOORHEAD FAIR -13 -18 77 CALM 30.03F  
FERGUS FALLS FAIR -4 -8 84 CALM 30.02S  
ELBOW LAKE FOG 0 -2 88 CALM 30.01R VSB 1/4  
MORRIS MN FAIR -2 -8 78 CALM 30.02S  
STAPLES LGT SNOW 3 1 92 NW5 29.97F WCI -6  
WHEATON FAIR 0 -4 85 CALM 30.05S  

 
***** WEATHER ELSEWHERE ACROSS MINNESOTA *****  
 
CITY SKY/WX TMP DP RH WIND PRES REMARKS  
DULUTH FLURRIES 14 8 77 N13 29.90F WCI 0  
INTRNTL FALLS LGT SNOW 6 4 91 W5 29.97F FOG WCI -3  
ELY FLURRIES 10 7 85 NW3 29.92S  
CLOQUET FLURRIES 12 9 85 NW6 29.92F WCI 3  
BRAINERD FAIR 6 1 80 NW6 29.97F HAZE WCI -4  
HIBBING CLOUDY 8 5 87 NW5 29.93F FOG WCI 0  
ALEXANDRIA FAIR 6 0 76 NW3 29.97F  
SAINT CLOUD CLOUDY 13 7 77 NW9 29.99R WCI 1  
MINNEAPOLIS CLOUDY 12 9 87 W3 30.01R  

 
 
***** WEATHER ACROSS SOUTH DAKOTA *****  
 
CITY SKY/WX TMP DP RH WIND PRES REMARKS  
SIOUX FALLS FAIR 12 8 84 NW10 30.01F WCI -1  
BROOKINGS FAIR 2 -1 88 W5 30.00F WCI -8  
WATERTOWN FAIR -4 -8 83 SW7 29.98S WCI -18  
HURON MOCLDY 1 -2 87 CALM 30.05F  
SISSETON N/A -6 -10 83 CALM 30.00F  
ABERDEEN CLOUDY 2 -2 83 S5 30.02F WCI -8  
MITCHELL FAIR 3 -1 83 W3 30.07F  
PIERRE FAIR 11 10 96 SW3 29.99F  
MOBRIDGE FAIR 11 6 81 SE8 29.92F WCI -1  
RAPID CITY MOCLDY 18 9 68 NW5 29.94F WCI 11  

 
 
***** SOME WEATHER IN NEARBY STATES *****  
 
CITY SKY/WX TMP DP RH WIND PRES REMARKS  
GLASGOW MT CLOUDY 27 19 72 W14 29.86S WCI 16  
GREAT FALLS MT FAIR 29 22 75 SW14 29.95F WCI 18  
CHEYENNE WY FAIR 21 5 50 W20G30 29.97F WCI 6  
SCOTTSBLUFF NE FAIR 12 9 87 NW8 30.03F WCI 0  
OMAHA NE LGT SNOW 17 10 74 NW10 30.06R WCI 5  
DES MOINES IA SNOW 17 14 88 N16G25 29.89F VSB 1/2 WCI 2  
DAVENPORT IA LGT SNOW 25 22 88 NE20 29.78F FOG WCI 11  
CHICAGO IL LGT RAIN 33 33 100 E3 29.81F FOG  
EAU CLAIRE WI CLOUDY 14 10 84 W5 29.97R WCI 6  
LA CROSSE WI CLOUDY 19 14 81 N12 29.93F WCI 7  

 
 
***** SOME NATIONAL WEATHER *****  
 
CITY SKY/WX TMP DP RH WIND PRES REMARKS  
LA GUARDIA NY MOCLDY 31 6 35 SW13 30.48F WCI 21  
RALEIGH NC CLOUDY 32 14 47 E5 30.50F  
ATLANTA GA CLOUDY 42 29 59 E13 30.31F  
NEW ORLEANS LA MOCLDY 63 61 93 E5 30.01F  
OKLAHOMA CITY MOCLDY 23 15 71 NW21G29 30.10R WCI 8  
ALBUQUERQUE NM FAIR 31 12 45 NW15G21 30.22R WCI 20  
SALT LAKE CITY MOCLDY 20 13 74 SE8 30.43F WCI 10  
LOS ANGELES CA FAIR 53 28 38 VRB6 30.33R  
BOISE ID CLOUDY 34 20 56 VRB3 30.34F  
SEATTLE WA LGT RAIN 49 46 90 S20G36 29.98F FOG  

 
 
*** WEATHER ACROSS MANITOBA...SASKATCHEWAN AND ONTARIO ***  
***ONTARIO***  
 
CITY SKY/WX TMP DP RH WIND PRES REMARKS  
GERALDTON FLURRIES 9 5 85 W2 29.87S  
THUNDER BAY MOCLDY 1 -2 85 W2 29.94F  
SIOUX LOOKOUT FLURRIES 10 7 85 NW5 29.90F WCI 2  
TORONTO FLURRIES 30 25 80 S7 30.00F WCI 23  
BIG TROUT LK FLURRIES 0 -6 78 W7 29.88F WCI -13  
PICKLE LAKE NOT AVBL  
DRYDEN FLURRIES 9 5 85 W5 29.90F WCI 0  
KENORA FLURRIES 5 1 85 SW5 29.93S WCI -4  

 
*** MANITOBA***  
 
CITY SKY/WX TMP DP RH WIND PRES REMARKS  
BRANDON CLOUDY 14 10 85 SE2 29.82F  
DAUPHIN CLEAR 18 18 100 SW9 29.79F WCI 6  
ISLAND LAKE FLURRIES -2 -8 78 W5 29.92S WCI -12  
PILOT MOUND N/A 1 -2 85 S9 N/A WCI -14  
THE PAS LGT SNOW 7 3 85 N5 29.84F WCI -2  
THOMPSON NOT AVBL  
WINNIPEG CLOUDY 10 5 79 S12 29.93F WCI -4  
LYNN LAKE MOCLDY -13 -17 84 W7 29.87S WCI -29  
CHURCHILL FLURRIES -17 -22 76 W12 29.82R WCI -38  
GILLAM CLEAR -17 -20 83 W9 29.87R WCI -36  

 
***SASKATCHEWAN***  
 
CITY SKY/WX TMP DP RH WIND PRES REMARKS  
ESTEVAN PTCLDY 16 12 86 SW8 29.74S WCI 5  
KINDERSLEY MOCLDY 21 16 79 W7G20 29.80R WCI 13  
LLOYDMINSTER FLURRIES 25 23 93 NW12 29.78S WCI 14  
PRINCE ALBERT LGT SNOW 14 10 85 E3 29.79R FOG  
REGINA CLEAR 1 -2 85 W7 29.75S FOG WCI -11  
YORKTON PTCLDY 12 9 85 S9 29.73F WCI 0  
N. BATTLEFORD FLURRIES 23 16 74 NW10 29.78S WC  
 
CLICK HERE TO GO TO PREVIOUS BULLETINS.

The Nexlab ND Page
The Nexlab MN Page Main Text Page